Weather in Lysva

Russia / Perm Krai     58°06′01″N   57°48′41″E
temp.,
°C
wind,
m/s
gust,
m/s
humid.,
%
clouds,
%
prec.,
mm/h
press.,
hPa
HPBL,
m
6 august, fri
fri623:00+14nw411895 0.1 1011554
02:00+13nnw41490100 0.0 1011648
05:00+13nnw4138398 0.0 1012581
08:00+14nnw513761 0.0 1013625
11:00+18nnw68510 0.0 10131232
14:00+20nnw68411 0.0 10131572
17:00+20nnw574744 0.0 10131603
20:00+16nw496571 0.0 1014543
7 august, sat
sat723:00+11nw288710 0.0 1015158
02:00+9nw28900 0.0 1015180
05:00+8nw311921 0.0 1016307
08:00+11nw412760 0.0 1016561
11:00+16nw58562 0.0 10151214
14:00+19nw574716 0.0 10151698
17:00+19nnw67517 0.0 10151749
20:00+14nnw4117228 0.0 1017923
8 august, sun
sun823:00+13nw4127678 0.0 1016747
02:00+11nnw4118594 0.0 1017621
05:00+12nnw4108799 0.0 1018579
08:00+12nnw4986100 0.0 1019536
11:00+16nnw467365 0.0 1019738
14:00+20nnw566024 0.0 10191037
17:00+20nnw566028 0.0 10201129
20:00+17nnw37755 0.0 1020508
9 august, mon
mon923:00+12nw22966 0.0 102132
02:00+11nw2397100 0.0 102164
05:00+9nw2497100 0.0 102296
08:00+12nnw38785 0.0 1022312
11:00+18nnw465192 0.0 1021830
14:00+20nnw4642100 0.0 10211133
17:00+19nw3652100 0.0 1021995
20:00+15nw2772100 0.0 1021241
10 august, tue
tue1023:00+14nw247793 0.0 1021110
02:00+11nw118869 0.0 102110
05:00+10wnw119184 0.0 102010
08:00+14nw018086 0.1 1019148
11:00+17nnw116975 0.3 1019467
14:00+21wnw115863 0.0 1018867
17:00+22n336072 0.0 10171280
20:00+18nnw26803 0.3 1017184